QPF
0.00 0.00 0.00 0.00 0.00 0.00 0.00 0.00 0.00 0.00 0.00 0.01 0.01 0.00 0.00 0.00 0.00 0.00 0.01 0.00 0.00 0.00
0.00 0.00 0.00 0.00 0.00 0.00 0.00 0.00 0.00 0.00 0.00 0.00 0.00 0.00 0.00 0.00 0.00 0.00 0.00 0.00 0.00 0.00
0.00 0.00 0.00 0.00 0.00 0.00 0.00 0.00 0.00 0.00 0.00 0.00 0.00 0.00 0.00 0.00 0.00 0.00 0.00 0.00 0.00 0.00
0.00 0.00 0.00 0.00 0.00 0.00 0.00 0.00 0.00 0.00 0.00 0.00 0.00 0.00 0.00 0.00 0.00 0.00 0.00 0.00 0.00 0.00
0.00 0.00 0.00 0.00 0.00 0.00 0.00 0.00 0.00 0.00 0.00 0.00 0.00 0.00 0.00 0.00 0.00 0.00 0.00 0.00 0.00 0.00
0.00 0.00 0.00 0.00 0.00 0.00 0.00 0.00 0.00 0.00 0.00 0.00 0.00 0.00 0.00 0.00 0.00 0.00 0.00 0.00 0.00 0.00
0.00 0.00 0.00 0.00 0.00 0.00 0.00 0.00 0.00 0.00 0.00 0.00 0.00 0.00 0.00 0.00 0.00 0.00 0.00 0.00 0.00 0.00
0.00 0.00 0.00 0.00 0.00 0.00 0.00 0.00 0.00 0.00 0.00 0.00 0.00 0.00 0.00 0.00 0.00 0.00 0.00 0.00 0.00 0.00
0.00 0.00 0.00 0.00 0.00 0.00 0.00 0.00 0.00 0.01 0.02 0.00 0.00 0.00 0.00 0.00 0.00 0.00 0.00 0.00 0.00 0.00
0.00 0.00 0.00 0.00 0.00 0.01 0.01 0.00 0.00 0.01 0.03 0.00 0.00 0.00 0.00 0.00 0.00 0.00 0.00 0.00 0.00 0.00
0.01 0.00 0.01 0.01 0.01 0.02 0.03 0.01 0.02 0.01 0.00 0.00 0.00 0.00 0.00 0.00 0.00 0.00 0.00 0.00 0.00 0.00
0.00 0.01 0.01 0.02 0.03 0.02 0.01 0.02 0.02 0.01 0.00 0.00 0.00 0.00 0.00 0.02 0.04 0.01 0.00 0.00 0.00 0.00
0.00 0.00 0.01 0.03 0.04 0.03 0.02 0.02 0.04 0.02 0.00 0.00 0.00 0.00 0.00 0.00 0.01 0.01 0.01 0.00 0.00 0.00
0.01 0.02 0.02 0.02 0.01 0.01 0.01 0.01 0.01 0.02 0.01 0.00 0.00 0.00 0.00 0.00 0.00 0.00 0.00 0.00 0.00 0.00
MSLP
1018.84 1019.05 1019.06 1019.08 1018.89 1018.76 1018.45 1018.11 1017.77 1017.60 1017.23 1016.91 1016.41 1016.28 1015.83 1015.51 1015.09 1014.52 1013.96 1013.57 1013.27 1013.02
1019.07 1019.12 1019.08 1018.86 1018.88 1018.70 1018.30 1017.91 1017.61 1017.35 1017.06 1016.69 1016.33 1016.17 1015.85 1015.41 1014.89 1014.42 1013.86 1013.42 1013.18 1012.94
1019.27 1019.17 1019.03 1018.93 1018.75 1018.48 1018.05 1017.81 1017.60 1017.22 1016.94 1016.65 1016.24 1015.95 1015.65 1015.23 1014.72 1014.25 1013.85 1013.43 1013.08 1012.80
1019.52 1019.49 1018.96 1018.82 1018.40 1018.20 1017.99 1017.78 1017.51 1017.25 1016.92 1016.55 1016.15 1015.79 1015.49 1015.06 1014.59 1014.22 1013.89 1013.48 1013.16 1012.71
1019.48 1019.42 1019.00 1018.59 1018.33 1018.09 1017.90 1017.68 1017.51 1017.11 1016.67 1016.34 1015.92 1015.58 1015.22 1014.92 1014.60 1014.12 1013.87 1013.52 1013.09 1012.75
1019.61 1019.36 1018.88 1018.54 1018.26 1017.99 1017.70 1017.46 1017.17 1016.83 1016.44 1016.12 1015.83 1015.62 1015.30 1014.95 1014.64 1014.26 1013.95 1013.43 1013.00 1012.79
1019.69 1019.19 1018.71 1018.34 1018.07 1017.78 1017.43 1017.18 1016.83 1016.43 1016.19 1015.93 1015.79 1015.70 1015.38 1015.08 1014.77 1014.38 1014.09 1013.79 1013.45 1013.08
1019.43 1018.97 1018.59 1018.24 1017.81 1017.45 1017.12 1016.80 1016.56 1016.27 1016.02 1015.88 1015.80 1015.71 1015.61 1015.28 1014.96 1014.79 1014.49 1014.26 1013.98 1013.66
1019.37 1018.87 1018.42 1017.98 1017.60 1017.27 1016.95 1016.56 1016.21 1016.02 1015.95 1016.05 1016.02 1015.89 1015.62 1015.49 1015.05 1014.97 1014.84 1014.66 1014.33 1014.00
1019.25 1018.84 1018.34 1017.84 1017.56 1017.25 1016.96 1016.55 1016.20 1015.97 1016.03 1016.36 1016.22 1015.88 1015.52 1015.31 1015.23 1015.08 1014.96 1014.76 1014.61 1014.34
1019.15 1018.84 1018.34 1017.94 1017.69 1017.29 1016.85 1016.55 1016.40 1016.29 1016.38 1016.55 1016.35 1015.88 1015.28 1014.88 1015.01 1015.10 1015.25 1015.05 1014.87 1014.69
1019.09 1018.79 1018.58 1018.19 1017.88 1017.40 1017.08 1016.81 1016.56 1016.57 1016.67 1016.68 1016.45 1015.95 1015.26 1014.70 1014.94 1015.01 1015.38 1015.29 1015.11 1014.98
1018.92 1018.90 1018.76 1018.41 1018.10 1017.57 1017.24 1017.08 1016.83 1016.71 1016.60 1016.56 1016.53 1016.24 1015.89 1015.52 1015.31 1015.19 1015.35 1015.48 1015.38 1015.30
1019.09 1019.06 1018.77 1018.52 1018.29 1018.15 1017.82 1017.41 1017.38 1017.39 1017.09 1016.91 1016.82 1016.59 1016.31 1015.93 1015.62 1015.67 1015.72 1015.74 1015.81 1015.60
Thickness
5562 5552 5542 5533 5527 5521 5517 5513 5509 5505 5503 5501 5500 5497 5497 5496 5497 5499 5501 5501 5500 5499
5543 5532 5524 5519 5512 5509 5506 5505 5503 5500 5500 5497 5496 5493 5492 5492 5493 5492 5493 5492 5491 5489
5522 5515 5510 5506 5501 5500 5500 5499 5497 5497 5495 5492 5491 5489 5487 5487 5488 5487 5486 5485 5483 5480
5507 5501 5501 5497 5496 5495 5494 5493 5492 5491 5488 5487 5485 5484 5482 5483 5484 5482 5480 5480 5479 5477
5500 5494 5491 5491 5490 5489 5488 5488 5486 5485 5484 5482 5481 5478 5477 5478 5478 5478 5476 5475 5475 5475
5490 5486 5486 5486 5486 5485 5484 5483 5482 5481 5480 5479 5476 5469 5469 5472 5472 5472 5471 5472 5473 5474
5483 5482 5483 5483 5482 5481 5481 5480 5480 5480 5478 5474 5471 5465 5464 5466 5465 5465 5465 5465 5465 5468
5480 5480 5479 5479 5479 5479 5479 5478 5477 5476 5475 5471 5466 5463 5459 5459 5458 5455 5455 5455 5455 5458
5477 5477 5477 5477 5477 5476 5475 5476 5475 5474 5472 5466 5462 5458 5457 5453 5452 5448 5447 5447 5448 5450
5474 5474 5474 5474 5473 5472 5471 5471 5470 5470 5466 5459 5456 5454 5453 5450 5447 5444 5442 5442 5442 5444
5470 5470 5470 5469 5467 5466 5467 5466 5465 5464 5460 5454 5452 5451 5451 5450 5445 5441 5437 5436 5436 5437
5465 5463 5462 5461 5461 5461 5461 5461 5462 5459 5454 5451 5448 5447 5448 5449 5443 5439 5433 5431 5432 5433
5459 5456 5455 5456 5456 5458 5459 5458 5458 5456 5454 5450 5445 5442 5441 5439 5436 5435 5431 5428 5428 5429
5451 5450 5451 5451 5451 5451 5451 5454 5452 5449 5448 5445 5440 5438 5436 5435 5434 5431 5428 5426 5425 5427